Location: Noyers
(47.2770°N, 1.4032°E)
Time: 07:52:03
(UTC+00:00)

Daily predictions for brighter satellites

Satellite Brightness Start Highest point End
(mag) Time Altitude Azimuth Time Altitude Azimuth Time Altitude Azimuth
Cosmos 2333 Rocket 3.2 19:53:31 10° NNW 19:58:41 34° NE 20:03:50 10° ESE
NOSS 3-3 (A) 3.6 19:57:54 10° SSW 20:02:56 64° ESE 20:08:56 10° NE
Okean 1 Rocket 4.1 19:59:02 10° SSW 20:03:18 51° WNW 20:07:39 10° N
Cosmos 1437 Rocket 4.2 20:03:50 10° SE 20:06:15 17° E 20:08:41 10° NE
Cosmos 2360 Rocket 3.6 20:03:50 10° N 20:08:33 26° NE 20:13:13 10° ESE
Cosmos 1452 Rocket 4.2 20:04:28 10° SW 20:09:38 60° WNW 20:14:49 10° NNE
CZ-4B DEB 4.4 20:04:09 10° S 20:09:40 76° WSW 20:15:13 10° NNW
SL-24 R/B 4.4 20:05:32 10° NNE 20:09:52 82° WNW 20:14:43 10° SSW
Helios 1A Rocket 2.1 20:07:01 10° NNE 20:10:10 74° ESE 20:13:17 10° S
CZ-4B R/B 3.3 20:07:11 10° SSE 20:12:50 85° ENE 20:18:27 10° NNW
Cosmos 2233 Rocket 4.0 20:08:15 10° S 20:14:22 65° E 20:20:27 10° NNE
Cosmos 1302 Rocket 4.1 20:11:48 10° SSW 20:16:58 81° WNW 20:22:12 10° NNE
Okean-O 3.0 20:15:05 10° SE 20:19:18 49° ENE 20:23:31 10° N
Cosmos 909 Rocket 4.0 20:13:53 10° SSW 20:20:12 73° ESE 20:26:38 10° NE
Cosmos 2219 Rocket 3.9 20:16:49 10° N 20:21:08 22° NE 20:25:27 10° E
Cosmos 1758 Rocket 4.1 20:17:41 10° N 20:21:54 42° ENE 20:25:51 11° SSE
GEOS 3 Rocket 4.2 20:23:22 10° SSE 20:28:32 53° SW 20:33:49 10° NW
ADEOS 3.8 20:26:18 10° S 20:31:29 75° WSW 20:36:44 10° NNW
Cosmos 1725 Rocket 4.5 20:28:12 10° SSW 20:34:25 65° WNW 20:40:37 10° N
NOSS 3-3 (C) 3.7 20:30:16 10° SW 20:35:27 87° SE 20:41:43 10° NE
Cosmos 2322 Rocket 2.9 20:36:01 10° NNW 20:41:25 43° NE 20:45:49 15° ESE
USA 306 4.3 20:42:01 10° WNW 20:44:21 19° NNW 20:46:07 10° NNE
Cosmos 2082 Rocket 3.0 20:39:37 10° SW 20:45:13 56° WNW 20:50:52 10° NNE
Cosmos 1602 Rocket 4.1 20:41:44 10° N 20:45:52 42° ENE 20:48:43 18° SE
Tsikada Rocket 4.2 20:40:10 10° NNW 20:46:20 72° W 20:52:25 10° S
NOSS 3-4 (A) 4.1 20:42:03 10° NW 20:48:38 63° NE 20:55:06 15° SE
NOSS 3-4 (C) 4.1 20:42:41 10° NW 20:49:17 63° NE 20:55:45 15° ESE
DELTA 2 R/B (1) 4.2 20:44:58 10° WSW 20:50:04 37° S 20:53:40 18° SE
CZ-4B R/B 3.0 20:49:58 21° SE 20:51:53 42° ENE 20:55:11 10° N
YAOGAN 11 4.1 20:48:36 10° NNE 20:53:04 81° ESE 20:57:32 10° SSW
Cosmos 2151 2.8 20:52:03 10° N 20:56:10 77° E 20:59:04 19° SSE
Cosmos 2098 Rocket 3.7 20:53:24 18° SSE 20:56:24 37° E 21:00:16 10° NNE
CZ-4C R/B 4.4 20:55:02 10° W 20:58:55 25° NNW 21:03:42 10° NNE
Cosmos 1626 Rocket 3.8 20:57:38 10° NNW 21:01:59 69° W 21:05:44 14° S
Ariane Rocket 3.3 20:59:02 19° SE 21:02:27 54° ENE 21:07:23 10° N
Spot 2 Rocket 4.1 21:03:00 10° S 21:07:48 54° W 21:12:45 10° NNW
Cosmos 2278 3.7 21:02:58 10° NNW 21:08:44 87° ENE 21:12:37 21° SSE
SL-16 R/B 2.4 21:07:06 10° NNW 21:12:45 71° WSW 21:16:43 20° SSE
SPOT 3 Rocket 3.5 21:09:24 20° SSE 21:13:02 85° ENE 21:18:12 10° NNW
Cosmos 1763 Rocket 4.2 21:10:53 22° SSE 21:13:33 36° ESE 21:18:19 10° NE
Meteor 1-5 Rocket 4.4 21:08:08 10° N 21:13:52 63° ENE 21:17:38 23° SSE
USA 186 2.9 21:12:57 17° SSW 21:14:34 32° W 21:17:07 10° NNW
USA 290 2.5 21:18:07 39° SE 21:18:35 42° ESE 21:21:35 10° NE
Cosmos 1606 Rocket 3.8 21:17:15 27° SSE 21:19:17 48° E 21:23:26 10° NNE
Cosmos 1513 Rocket 4.4 21:15:01 10° S 21:21:11 87° E 21:27:20 10° N
Cosmos 1933 3.5 21:19:51 13° SSW 21:23:06 63° W 21:26:54 10° N
Cosmos 1464 Rocket 4.0 21:18:41 19° S 21:23:12 64° E 21:29:19 10° NNE
Cosmos 1461 3.8 21:21:39 10° WSW 21:25:12 43° NW 21:28:44 10° NNE
ISS -2.4 21:22:11 10° WNW 21:25:21 38° N 21:28:15 12° ENE
Helios 1B rocket 4.4 21:24:22 11° ENE 21:25:25 12° ENE 21:26:45 10° NE
CZ-4B R/B 3.3 21:23:15 25° SSE 21:26:05 90° NNE 21:30:57 10° NNW
Okean 1 3.4 21:25:54 36° SE 21:26:43 43° E 21:30:09 10° NNE
Cosmos 1726 Rocket 3.9 21:25:49 32° SE 21:27:00 40° E 21:30:48 10° NNE
BREEZE-M DEB (TANK) 1.9 21:24:43 10° W 21:27:27 49° N 21:28:12 29° NE
NOSS 3 (A) 4.3 21:26:29 10° NW 21:28:52 66° SW 21:29:11 58° S
COSMOS 2406 4.0 21:23:45 10° SW 21:29:22 53° WNW 21:35:00 10° NNE
Terra 4.2 21:27:18 10° SW 21:30:25 17° W 21:33:32 10° NW
Okean O Rocket 3.2 21:29:45 10° SSW 21:33:23 29° W 21:37:09 10° NW
Cosmos 1536 4.2 21:33:28 10° NNE 21:36:20 21° ENE 21:36:59 20° E
Cosmos-2242 3.8 21:37:47 29° ESE 21:38:23 30° E 21:42:00 10° NNE
Cosmos 1428 Rocket 4.5 21:32:16 10° N 21:38:31 74° E 21:42:00 27° SSE
Cosmos 1437 Rocket 4.2 21:37:26 10° SW 21:40:40 32° WNW 21:43:57 10° N
Cosmos 1777 Rocket 4.0 21:35:30 10° NNW 21:40:44 76° WSW 21:43:21 30° S
Cosmos 2333 Rocket 2.9 21:37:41 10° NW 21:43:08 47° WSW 21:46:30 22° S
Cosmos 1833 4.1 21:44:13 20° S 21:48:09 68° ESE 21:53:44 10° NNE
Okean 1-7 Rocket 3.7 21:43:50 10° NNW 21:48:18 72° W 21:50:18 32° S
Cosmos 1503 Rocket 3.9 21:45:36 10° NNW 21:50:48 80° WSW 21:53:04 34° SSE
CZ-2C R/B 2.4 21:52:45 50° WSW 21:52:50 50° WSW 21:55:33 10° NNW
Cosmos 2360 Rocket 2.4 21:47:23 10° NNW 21:53:01 66° WSW 21:55:44 31° S
Cosmos 1766 3.4 21:53:44 10° N 21:56:45 40° ENE 21:56:45 40° ENE
Cosmos 2034 Rocket 4.0 21:58:36 27° S 22:02:20 83° E 22:08:42 10° N
Cosmos 2333 4.4 21:57:29 10° NNW 22:03:10 66° WSW 22:05:42 34° S
Cosmos 2221 4.2 22:03:18 18° E 22:03:18 18° E 22:06:04 10° NE
Cosmos 1271 Rocket 4.3 22:06:21 20° ENE 22:06:21 20° ENE 22:08:10 10° NE
Cosmos 2219 Rocket 2.2 22:00:05 10° NNW 22:05:46 82° WSW 22:08:05 37° SSE
Cosmos 1354 Rocket 3.9 22:00:35 10° NNW 22:05:51 86° WSW 22:07:46 40° SSE
Cosmos 540 Rocket 3.4 22:07:44 27° SSW 22:10:38 87° WNW 22:15:49 10° NNE
Cosmos 1825 Rocket 4.2 22:08:04 10° NNW 22:12:15 47° W 22:13:51 32° SW
Nadezhda 4 Rocket 4.5 22:10:36 10° NNW 22:16:31 53° W 22:20:00 25° SSW
Helios 1A 2.7 22:14:00 10° NNE 22:17:54 62° ESE 22:18:06 60° ESE
Cosmos 2279 Rocket 4.5 22:16:40 34° SE 22:18:43 45° E 22:24:38 10° NNE
Cosmos 1953 Rocket 3.6 22:14:48 10° NNW 22:19:08 70° W 22:20:10 49° SSW
RESURS DK-1 3.2 22:16:11 10° NNW 22:19:55 37° NE 22:20:45 33° E
Aureole 1 Rocket 4.0 22:15:45 10° NNW 22:21:40 84° ENE 22:24:34 37° SSE
Cosmos 1707 2.9 22:23:33 46° N 22:23:33 46° N 22:25:41 10° N
Cosmos 1634 Rocket 3.9 22:22:33 38° SSE 22:25:00 71° E 22:31:11 10° NNE
Cosmos 2322 Rocket 3.3 22:20:15 10° NW 22:25:20 35° WSW 22:27:37 25° SSW
Cosmos 1937 Rocket 4.3 22:23:31 10° N 22:28:21 40° ENE 22:30:09 30° ESE
TSX-5 3.7 22:27:00 10° NNW 22:29:55 59° NE 22:29:55 59° NE
Cosmos 2058 Rocket 2.9 22:30:59 57° SSW 22:31:50 85° WNW 22:36:11 10° N
Cosmos 468 Rocket 3.9 22:30:14 42° SSW 22:32:03 82° ESE 22:37:19 10° NNE
Geosat 3.9 22:28:50 10° NNE 22:33:52 82° ESE 22:35:38 41° SSW
CZ-2C R/B 4.3 22:29:52 10° NNE 22:34:06 40° E 22:34:15 40° ESE
BREEZE-M DEB 4.2 22:31:40 10° WSW 22:36:17 70° SSE 22:48:11 10° E
Cosmos 2026 Rocket 4.3 22:32:34 10° NNW 22:38:53 63° W 22:41:40 34° SSW
Cosmos 44 3.5 22:34:27 10° NW 22:39:49 70° WSW 22:41:01 52° S
Meteor 2-9 Rocket 4.4 22:34:31 10° N 22:39:52 57° ENE 22:41:24 42° SE
Cosmos 2237 Rocket 3.4 22:39:02 10° NNW 22:44:11 34° NE 22:47:09 21° E
USA 234 3.8 22:43:36 10° ENE 22:49:29 35° SE 22:49:36 34° SE
Cosmos 1470 2.9 22:46:37 10° N 22:49:19 54° NNE 22:49:19 54° NNE
ARIANE 5 R/B 2.8 22:52:41 54° ESE 22:53:16 60° ENE 22:57:41 10° N
ALOS 2 3.0 22:54:46 48° E 22:55:20 52° ENE 22:59:37 10° N
Cosmos 2227 Rocket 4.1 22:55:50 15° E 22:55:53 15° E 22:59:00 10° ENE
Helios 1B rocket 2.5 22:58:18 55° WNW 22:58:18 55° WNW 23:01:23 10° NNW
COSMOS 2428 2.6 22:52:17 10° NNW 22:58:02 86° ENE 22:59:35 50° SSE
ISS -2.5 22:59:03 10° WNW 23:01:11 36° WNW 23:01:11 36° WNW
Cosmos 1898 Rocket 3.4 22:58:22 10° NNW 23:03:35 81° WSW 23:04:34 59° S
Cosmos 2263 Rocket 4.4 23:03:56 10° E 23:04:07 10° E 23:04:56 10° E
CZ-2C R/B 4.1 23:03:10 10° NNE 23:08:26 35° E 23:09:26 33° ESE
Meteor 1-11 Rocket 3.8 23:03:09 10° N 23:08:46 64° ENE 23:10:10 48° SE
SAR-Lupe-2 4.4 23:10:57 42° NE 23:10:57 42° NE 23:13:35 10° N
Cosmos 1536 4.0 23:08:22 10° NNW 23:11:30 29° W 23:11:30 29° W
Meteor 1-10 Rocket 4.4 23:11:29 50° SSE 23:12:54 66° E 23:18:48 10° NNE
Cosmos 1238 Rocket 4.3 23:14:04 27° E 23:14:04 27° E 23:17:31 10° NNE
PSLV R/B 3.7 23:12:59 10° NNE 23:17:15 61° E 23:17:15 61° E
Meteor 1-27 Rocket 4.0 23:25:50 47° SE 23:27:01 56° E 23:32:37 10° NNE
Cosmos 841 Rocket 3.6 23:27:23 47° SW 23:28:49 68° WNW 23:34:03 10° NNE
Cosmos 2297 Rocket 2.2 23:27:59 56° SSE 23:28:51 64° ESE 23:34:27 10° NNE
NOSS 0 Rocket 3.9 23:23:07 10° NNW 23:29:17 74° WSW 23:30:48 52° S
Cosmos 1975 3.6 23:30:32 10° NNW 23:33:29 39° WNW 23:33:29 39° WNW
Spot 4 4.1 23:36:12 52° WSW 23:36:37 54° W 23:41:20 10° NNW
Cosmos 1271 Rocket 4.3 23:39:42 23° WNW 23:39:42 23° WNW 23:42:24 10° NNW
Cosmos 2221 3.1 23:39:35 43° W 23:39:53 44° WNW 23:43:55 10° N
Cosmos 1812 Rocket 3.7 23:39:58 59° W 23:40:17 61° WNW 23:44:41 10° N
Cosmos 2322 4.3 23:36:12 10° NW 23:41:29 41° WSW 23:42:12 39° SW
MetOp-A 3.8 23:42:38 65° SE 23:43:17 79° ENE 23:47:58 10° NNW
ACS3 Solar Sail 3.1 23:39:32 10° NE 23:44:28 26° E 23:46:10 23° ESE
Cosmos 2219 Rocket 4.3 23:46:14 10° WNW 23:48:46 13° W 23:49:46 13° WSW
